Temperature
19 19 19 19 18 18 18 18 18 18 18 18 18 18 18 18 18 18 18 18 18 18 18 18 18 18 18 18 18 18 18 17 17 17 17 17 18 18 17 17 17 17 17
18 18 18 18 18 18 18 18 18 18 18 18 18 18 18 18 18 18 18 18 18 18 18 18 18 18 18 18 18 18 18 18 17 17 17 17 17 17 17 17 17 17 17
18 18 18 18 18 18 18 18 18 18 18 18 18 18 18 18 18 18 18 18 18 18 18 18 18 18 18 18 18 18 18 18 18 17 17 17 17 17 17 17 17 17 17
18 17 17 17 17 17 17 17 17 18 17 17 18 18 18 18 18 18 18 18 18 18 18 18 18 18 18 18 18 18 18 18 18 17 17 17 17 17 17 17 17 17 17
17 17 17 16 17 17 17 17 17 17 17 17 17 18 18 18 18 18 18 18 18 18 18 18 18 18 18 18 18 18 18 18 18 17 17 17 17 17 17 17 17 17 17
17 16 16 16 16 16 16 17 17 17 17 17 17 18 18 18 18 18 18 18 18 18 18 17 17 17 18 17 18 18 18 18 18 17 17 17 17 17 17 17 17 17 17
16 16 16 16 16 16 16 16 16 16 17 17 17 18 18 18 18 18 18 18 18 18 18 18 17 17 17 17 17 17 17 17 17 17 17 17 17 17 17 17 17 17 17
16 16 15 15 15 16 16 16 16 16 16 17 17 17 18 18 18 18 18 18 18 18 18 18 17 17 17 17 17 17 17 17 17 17 17 17 17 17 17 17 17 17 17
15 15 15 15 15 15 15 15 15 16 16 16 17 17 18 18 18 18 18 18 18 18 18 18 18 17 17 17 17 17 17 17 17 17 17 17 17 17 17 17 17 17 17
15 15 15 15 15 15 15 15 15 15 16 16 16 17 17 18 18 18 18 18 18 18 18 18 18 17 17 17 17 17 17 17 17 17 17 17 17 17 17 17 17 17 17
15 15 15 15 15 14 15 15 15 15 15 16 16 17 17 17 17 17 18 18 18 18 18 18 17 17 17 17 17 17 17 17 17 17 17 17 17 17 17 16 16 16 16
14 14 14 14 14 14 14 14 14 15 15 15 16 16 16 17 17 17 17 17 18 18 17 17 17 17 17 17 17 17 17 17 17 17 17 17 17 17 17 16 16 16 16
14 14 14 14 14 14 14 14 14 14 14 15 15 16 16 16 17 17 17 17 17 18 17 17 17 17 17 17 17 17 17 17 17 17 17 17 17 17 17 17 16 16 16
13 13 13 13 13 13 13 13 13 13 14 14 14 15 15 16 16 16 16 17 17 17 17 17 17 17 17 17 17 16 16 16 16 17 17 17 17 17 17 16 16 16 16
13 13 13 12 12 12 12 12 12 13 13 13 14 14 15 15 15 16 16 16 16 16 17 17 17 17 17 17 16 16 16 16 16 16 17 17 17 17 16 16 16 16 16
12 12 12 12 12 12 12 12 12 12 12 12 13 13 14 14 14 15 15 15 15 16 16 17 17 17 16 16 16 16 16 16 16 16 16 16 16 16 16 16 16 16 16
11 11 11 11 11 11 11 11 11 11 12 12 12 12 13 13 13 14 14 15 15 15 15 16 16 16 16 16 16 16 16 16 16 16 16 16 16 16 16 16 16 16 16
11 11 11 11 11 11 11 11 11 11 11 11 11 12 12 12 12 13 13 14 14 14 15 15 15 15 15 15 15 15 15 15 15 15 15 15 16 16 16 16 16 16 16
10 10 10 10 10 11 11 11 11 11 11 11 11 11 11 11 12 12 12 13 13 13 14 14 15 15 14 14 14 14 14 14 14 14 14 15 15 15 15 15 15 15 16
9 9 10 10 10 10 10 10 10 11 11 11 11 11 11 11 11 11 11 12 12 13 13 13 14 14 14 14 14 14 13 13 13 14 14 14 14 14 14 15 15 15 15
9 9 9 9 9 9 10 10 10 10 10 10 10 10 10 11 10 11 11 11 11 12 12 13 13 13 13 13 13 13 13 13 13 13 13 13 13 13 14 14 14 14 15
8 8 8 8 8 9 9 9 10 10 10 10 10 10 10 10 10 10 10 11 11 11 11 12 12 13 13 13 13 13 13 12 12 12 12 12 12 13 13 13 13 14 14
8 8 8 8 8 8 8 9 9 9 9 10 10 10 10 10 10 10 10 10 10 10 11 11 11 12 12 13 13 13 13 13 13 13 12 12 12 12 12 13 13 13 13
7 7 7 7 7 7 8 8 8 8 9 9 9 10 10 10 10 10 10 10 10 10 11 11 11 12 12 12 12 12 13 12 12 12 12 11 11 11 12 12 12 12 12
7 7 7 7 7 7 7 7 8 8 8 9 9 9 9 9 10 10 10 9 10 10 10 10 11 11 11 11 12 12 12 12 12 11 11 11 11 11 11 11 11 12 12
7 7 7 7 7 7 7 7 7 7 8 8 8 9 9 9 9 9 9 9 9 9 9 10 10 10 11 11 11 11 12 12 12 11 11 11 11 11 10 10 11 11 11
Wind_Speed
5 5 3 2 4 6 7 6 5 7 7 7 9 9 8 9 11 10 10 21 24 24 23 22 21 21 21 21 21 22 22 22 21 21 21 20 19 18 17 17 16 16 15
2 4 4 4 4 5 5 4 6 6 6 6 8 7 7 8 10 11 12 18 23 24 23 22 22 22 22 22 22 22 22 22 22 22 22 22 21 20 20 19 18 18 18
4 4 5 5 5 7 6 5 5 4 7 8 9 9 7 8 9 11 11 12 16 22 24 24 23 23 23 23 23 23 23 23 23 23 24 23 23 22 22 21 20 20 20
6 4 5 6 6 6 4 6 6 6 7 7 7 8 8 8 10 10 10 11 13 15 21 24 24 24 24 24 24 24 24 25 25 24 25 24 24 23 23 23 22 22 22
7 4 6 6 5 5 6 8 6 6 7 7 7 8 7 7 9 10 9 10 11 12 13 21 26 25 24 24 24 24 24 25 25 25 25 25 25 25 24 24 24 23 23
7 5 6 6 6 6 6 7 6 6 6 6 8 7 6 7 8 8 10 9 10 13 14 15 19 21 24 24 25 24 24 24 24 25 25 25 26 25 25 25 25 24 24
6 5 6 5 5 6 7 7 6 7 6 5 5 5 6 8 8 7 7 7 8 10 12 13 15 15 17 25 25 24 24 24 24 24 25 25 25 25 25 25 25 25 25
4 5 4 4 4 5 6 6 6 4 4 5 4 4 4 5 6 9 7 8 7 6 7 10 11 11 10 13 19 24 23 23 23 24 24 24 24 24 24 24 24 24 25
4 3 4 4 4 3 4 6 6 5 5 4 6 5 3 3 3 5 7 7 6 4 4 4 8 11 12 11 13 21 24 23 22 22 23 23 23 24 24 24 24 24 24
3 3 3 4 4 3 3 4 4 4 4 4 4 3 2 1 1 2 3 5 6 6 5 5 6 7 12 11 12 14 21 22 21 21 21 21 22 23 23 23 23 22 22
3 2 2 3 4 3 4 3 3 3 3 4 4 3 3 3 3 2 3 4 4 6 6 5 4 3 7 10 10 13 18 20 20 19 19 19 20 22 23 23 23 22 23
3 2 1 1 2 3 4 4 3 4 3 4 4 3 2 2 3 3 3 4 5 5 6 5 5 4 4 7 8 11 15 16 16 16 16 16 17 19 21 22 22 22 23
4 2 1 0 2 2 3 3 3 3 3 4 5 4 3 3 2 2 2 3 3 3 4 5 5 5 5 8 9 11 12 13 12 12 12 13 14 15 16 19 20 21 21
6 5 3 3 3 3 3 2 2 3 3 3 4 4 4 4 2 2 2 2 2 2 3 5 4 6 4 8 11 10 8 10 10 10 10 10 11 12 12 14 15 16 17
8 6 4 4 4 4 4 3 3 3 3 3 3 3 3 3 2 2 2 2 2 3 3 4 3 5 6 8 11 8 8 9 8 8 8 9 9 10 10 10 11 11 12
9 9 9 8 7 6 6 5 5 4 4 4 3 3 3 3 2 2 2 2 3 3 3 2 3 6 7 8 10 9 10 12 9 8 8 8 8 8 8 8 8 9 9
9 9 9 9 9 8 8 7 7 6 6 5 4 5 5 4 3 2 2 2 3 3 4 3 2 5 6 7 7 9 10 9 9 9 9 9 9 8 8 8 7 7 6
9 9 9 10 10 10 9 9 10 9 8 8 7 6 6 5 5 4 3 4 3 3 3 4 3 4 5 7 8 7 6 9 9 10 10 11 11 10 9 9 8 6 5
10 10 10 9 10 10 10 10 10 9 9 9 8 8 7 7 6 5 5 4 4 4 3 4 4 3 4 6 7 6 8 7 8 10 11 11 11 11 11 10 9 7 6
10 10 10 10 10 10 11 10 10 10 10 10 9 8 8 8 8 7 6 6 5 5 4 4 4 4 4 6 7 7 7 6 6 7 8 9 11 12 11 10 9 8 7
13 11 11 11 10 10 12 12 10 12 11 11 10 9 10 10 10 8 7 6 6 5 5 5 4 4 5 6 7 6 8 7 6 6 6 6 6 6 7 8 9 9 9
11 11 11 11 12 13 13 10 9 9 9 11 10 10 10 10 11 12 10 8 7 7 7 6 5 6 7 6 6 7 7 7 5 6 6 5 5 5 5 6 8 10 11
12 12 11 11 11 12 13 12 11 8 9 9 10 10 11 12 12 10 11 11 9 9 8 5 6 6 5 6 7 8 8 9 5 7 7 5 5 5 5 8 10 11 13
11 11 12 12 11 12 13 13 11 9 9 9 9 9 10 8 10 9 9 10 10 9 10 8 6 6 6 4 5 6 7 6 5 7 6 4 5 5 6 7 9 11 13
11 11 11 12 11 11 12 11 11 8 8 10 10 9 10 10 10 11 9 9 9 8 11 12 11 8 8 7 6 5 6 8 6 5 4 4 6 6 5 4 7 11 13
11 11 11 11 11 10 11 12 12 8 9 9 9 9 12 11 12 13 9 8 8 8 7 8 9 9 8 9 11 9 8 9 7 5 6 6 8 6 5 4 5 7 9
Wind_Direction
228 251 260 240 226 219 214 216 215 213 220 228 233 230 221 226 242 241 209 189 190 193 193 198 203 209 213 215 215 213 212 211 210 209 208 209 210 208 206 204 204 203 202
236 248 260 256 245 239 234 222 223 223 228 225 229 231 230 227 237 241 221 201 196 196 199 203 206 211 215 217 217 216 214 214 213 212 213 212 212 211 209 208 207 207 207
265 253 252 254 250 241 237 231 236 227 230 228 225 228 226 228 232 233 227 208 202 203 204 206 208 212 215 218 218 217 216 215 215 214 215 216 215 214 212 211 210 209 209
277 262 256 254 247 240 239 233 231 232 230 229 230 229 225 221 225 228 227 220 209 209 210 211 211 212 215 219 220 219 217 215 215 215 215 216 216 216 215 214 212 212 212
288 276 263 259 256 247 244 247 231 221 235 229 231 225 221 219 221 225 219 220 215 214 208 211 212 213 216 219 220 220 218 217 215 216 217 217 217 217 216 215 214 214 214
300 289 270 262 257 248 242 241 240 228 232 227 240 241 222 218 210 211 213 214 209 211 213 210 205 214 217 218 218 218 219 218 216 216 218 219 219 218 216 215 214 214 214
302 288 284 278 271 257 246 244 240 230 228 230 238 253 238 222 208 208 207 215 206 202 209 202 192 200 210 218 218 218 218 218 217 217 219 220 219 218 216 217 216 216 216
310 299 296 285 277 267 264 259 243 228 234 221 216 235 234 218 211 208 196 207 215 195 196 198 192 195 199 201 214 217 218 217 217 218 218 218 218 217 216 217 218 217 218
313 305 308 295 282 268 258 257 243 223 232 227 216 222 230 214 195 196 197 193 182 179 192 188 189 192 201 202 205 212 215 215 216 219 218 217 216 217 217 217 218 219 219
306 307 314 322 313 299 277 263 242 234 240 248 242 240 253 336 228 174 202 178 172 182 201 208 197 189 195 202 202 198 207 212 214 217 219 219 218 216 216 217 219 221 221
277 290 328 346 348 332 325 318 311 260 246 249 255 242 237 228 226 207 201 180 183 183 189 195 190 189 193 195 193 190 194 202 208 214 219 221 219 216 215 217 220 224 224
283 274 274 10 345 337 336 330 318 283 271 276 278 269 248 228 224 218 193 193 193 190 180 175 180 185 191 186 182 172 180 190 199 208 214 217 216 216 215 216 221 225 227
294 289 317 352 299 301 305 314 321 302 286 281 278 274 271 267 259 253 224 217 204 182 174 179 181 182 179 139 133 147 163 176 188 198 206 210 212 213 214 217 220 224 227
294 281 263 245 247 255 270 282 285 290 293 291 278 279 275 278 293 287 264 247 225 213 198 190 166 166 142 124 134 141 147 165 178 188 196 201 204 207 210 214 216 220 223
287 293 293 271 254 246 248 249 252 254 254 259 273 286 283 282 286 290 289 284 240 221 218 194 158 151 132 123 141 137 133 141 153 164 177 185 191 195 200 202 206 213 219
280 279 272 263 253 242 236 235 237 239 238 232 232 244 260 265 270 278 270 275 276 251 226 206 164 153 146 143 147 134 125 130 131 136 142 150 160 170 178 186 194 203 213
273 271 268 264 256 245 233 228 233 233 235 235 235 230 230 238 245 254 259 260 261 267 243 228 165 140 135 135 134 133 140 135 119 120 123 127 131 138 145 152 161 170 185
283 276 268 262 259 255 239 229 229 231 226 226 226 226 226 226 224 233 235 238 242 257 247 221 184 155 154 151 147 149 146 127 117 116 117 119 120 122 125 128 133 140 151
288 283 278 272 265 260 251 237 229 225 226 224 221 221 220 213 216 218 223 229 228 232 227 216 208 182 171 162 153 148 124 119 120 124 115 111 111 111 112 115 117 120 124
287 282 277 273 269 265 259 247 235 229 224 221 216 217 220 217 215 211 217 217 217 218 215 216 205 192 186 171 161 150 141 141 136 137 120 116 112 104 102 103 106 110 112
289 287 284 277 271 267 262 254 241 237 225 221 215 213 219 217 218 215 219 207 205 208 207 210 208 202 195 181 177 169 160 145 134 141 136 138 130 110 100 95 96 105 108
289 286 282 279 275 270 270 275 260 252 234 221 215 213 221 220 214 208 207 194 191 205 209 210 211 206 205 195 184 170 160 155 158 164 152 143 133 114 101 94 103 110 110
290 284 280 275 270 267 269 269 261 256 254 234 218 209 219 221 205 207 207 205 206 213 208 210 219 216 210 200 186 180 175 176 164 163 149 137 128 107 91 95 109 113 113
288 283 279 274 267 262 255 250 250 245 251 243 225 211 213 225 213 205 208 208 210 211 209 212 223 228 229 214 194 193 181 168 140 152 151 135 133 115 103 93 103 112 115
287 281 278 271 265 261 248 240 235 240 241 242 233 222 214 217 209 199 204 210 213 214 216 214 210 217 221 216 191 179 172 165 159 164 162 133 136 123 112 105 102 111 116
286 283 279 271 264 260 244 227 221 233 234 233 228 225 221 214 203 197 204 210 213 216 221 211 206 210 213 215 199 193 183 176 164 166 173 146 150 143 129 125 134 132 121
Height
1523 1524 1525 1525 1526 1526 1526 1526 1527 1528 1530 1532 1533 1534 1535 1536 1538 1540 1540 1542 1544 1546 1548 1550 1552 1554 1556 1559 1561 1564 1567 1569 1571 1574 1576 1578 1580 1582 1584 1587 1589 1591 1593
1519 1519 1520 1520 1521 1522 1522 1523 1522 1525 1526 1527 1529 1530 1531 1531 1533 1534 1536 1538 1540 1541 1543 1545 1547 1549 1552 1555 1557 1560 1562 1565 1568 1570 1573 1575 1577 1579 1582 1584 1586 1589 1591
1514 1514 1514 1515 1515 1516 1517 1518 1518 1520 1521 1522 1523 1524 1525 1526 1526 1529 1532 1533 1535 1537 1539 1541 1543 1545 1547 1550 1553 1555 1558 1561 1563 1566 1569 1571 1574 1576 1579 1581 1583 1586 1588
1509 1509 1508 1508 1509 1510 1511 1512 1513 1514 1516 1517 1518 1519 1519 1520 1522 1524 1526 1528 1530 1532 1534 1536 1538 1540 1542 1545 1548 1551 1553 1556 1559 1562 1564 1567 1570 1572 1575 1577 1580 1582 1585
1505 1503 1502 1502 1503 1503 1504 1506 1507 1508 1510 1511 1512 1514 1515 1515 1516 1519 1521 1523 1525 1528 1529 1531 1533 1535 1538 1540 1543 1546 1548 1551 1554 1557 1560 1563 1565 1568 1571 1573 1576 1579 1581
1500 1498 1497 1497 1497 1497 1497 1499 1501 1502 1503 1505 1507 1509 1510 1512 1513 1515 1516 1518 1521 1523 1525 1527 1528 1531 1533 1535 1538 1541 1543 1546 1549 1552 1555 1558 1561 1564 1566 1569 1571 1574 1577
1495 1494 1492 1492 1492 1491 1491 1493 1495 1496 1498 1501 1503 1504 1506 1507 1509 1510 1512 1514 1516 1518 1521 1523 1524 1526 1528 1530 1533 1535 1538 1541 1544 1547 1550 1553 1556 1559 1561 1564 1567 1570 1573
1492 1490 1489 1488 1488 1487 1487 1488 1489 1491 1493 1496 1498 1500 1502 1504 1504 1506 1507 1509 1512 1514 1516 1518 1520 1522 1524 1526 1528 1530 1533 1536 1539 1542 1545 1548 1551 1554 1557 1559 1562 1565 1568
1490 1489 1487 1485 1484 1484 1484 1484 1486 1487 1489 1492 1495 1498 1499 1498 1500 1502 1503 1505 1507 1510 1512 1514 1516 1518 1520 1522 1524 1526 1528 1531 1533 1536 1540 1543 1546 1549 1552 1554 1557 1560 1563
1489 1487 1485 1483 1482 1481 1482 1482 1482 1484 1486 1488 1491 1493 1495 1495 1497 1498 1500 1502 1503 1506 1508 1511 1513 1514 1516 1518 1519 1521 1524 1526 1529 1531 1534 1537 1540 1543 1546 1549 1552 1555 1558
1486 1484 1483 1481 1480 1480 1480 1480 1480 1482 1483 1486 1488 1490 1491 1492 1493 1495 1497 1499 1500 1502 1504 1507 1509 1511 1513 1514 1516 1517 1520 1522 1524 1527 1529 1532 1535 1537 1540 1544 1547 1550 1553
1484 1482 1480 1479 1478 1477 1477 1477 1478 1479 1480 1482 1484 1485 1487 1488 1490 1492 1493 1495 1497 1499 1501 1503 1505 1507 1509 1511 1512 1514 1516 1518 1520 1522 1524 1527 1530 1532 1535 1538 1541 1544 1547
1481 1479 1478 1476 1475 1475 1474 1474 1474 1475 1476 1478 1480 1481 1483 1484 1486 1488 1491 1492 1494 1496 1498 1500 1501 1503 1505 1507 1508 1510 1512 1514 1516 1518 1520 1522 1525 1527 1530 1533 1536 1538 1541
1477 1476 1474 1473 1472 1471 1471 1471 1470 1471 1472 1473 1475 1477 1478 1480 1482 1484 1487 1489 1491 1493 1495 1496 1498 1500 1502 1503 1505 1507 1508 1510 1512 1513 1516 1518 1520 1523 1525 1528 1530 1533 1536
1472 1471 1470 1469 1468 1468 1467 1467 1466 1466 1467 1468 1469 1471 1473 1475 1478 1480 1482 1485 1488 1489 1491 1493 1495 1497 1498 1500 1502 1503 1504 1506 1508 1510 1512 1514 1516 1519 1521 1523 1525 1528 1530
1466 1465 1464 1463 1463 1463 1462 1462 1462 1462 1463 1463 1463 1465 1467 1470 1472 1475 1477 1480 1483 1486 1487 1489 1491 1493 1495 1497 1499 1500 1501 1503 1504 1506 1508 1510 1512 1514 1517 1519 1521 1523 1525
1459 1458 1457 1457 1457 1457 1457 1457 1457 1458 1458 1458 1459 1460 1462 1464 1466 1469 1472 1474 1477 1480 1483 1485 1487 1489 1492 1493 1495 1497 1498 1500 1501 1503 1505 1507 1509 1511 1513 1515 1517 1519 1520
1452 1451 1450 1450 1450 1450 1450 1451 1451 1452 1453 1453 1454 1455 1456 1458 1461 1463 1466 1468 1471 1475 1478 1480 1483 1486 1488 1490 1492 1494 1496 1497 1498 1500 1502 1504 1505 1507 1509 1511 1513 1515 1516
1445 1444 1443 1442 1442 1443 1443 1444 1445 1446 1447 1448 1449 1450 1451 1453 1455 1457 1459 1462 1465 1468 1472 1476 1478 1481 1484 1486 1489 1492 1493 1494 1496 1498 1500 1501 1502 1504 1506 1508 1510 1511 1513
1437 1436 1435 1434 1434 1434 1435 1436 1437 1439 1440 1442 1443 1444 1446 1447 1449 1451 1454 1456 1459 1462 1466 1469 1472 1476 1479 1482 1485 1488 1490 1492 1494 1495 1497 1499 1500 1502 1503 1505 1507 1508 1510
1430 1428 1427 1426 1425 1426 1427 1428 1430 1431 1433 1435 1437 1439 1440 1442 1444 1446 1449 1451 1453 1457 1460 1463 1466 1470 1473 1477 1480 1483 1486 1489 1491 1493 1495 1497 1498 1499 1501 1503 1504 1506 1507
1422 1420 1418 1417 1416 1417 1419 1420 1421 1423 1425 1427 1429 1432 1435 1437 1439 1441 1444 1446 1448 1451 1454 1457 1460 1463 1467 1471 1476 1479 1482 1485 1488 1491 1493 1495 1496 1498 1499 1501 1503 1504 1505
1414 1411 1410 1409 1407 1408 1409 1411 1412 1415 1417 1420 1422 1426 1429 1432 1434 1436 1438 1441 1443 1446 1449 1452 1455 1458 1462 1466 1470 1473 1477 1480 1484 1487 1490 1492 1494 1496 1497 1499 1501 1503 1504
1406 1403 1401 1400 1399 1399 1400 1402 1404 1406 1409 1412 1415 1419 1422 1426 1429 1431 1433 1435 1438 1440 1443 1447 1450 1453 1457 1461 1465 1469 1472 1477 1481 1484 1487 1489 1492 1493 1496 1498 1500 1502 1503
1399 1396 1394 1392 1391 1391 1392 1394 1396 1398 1401 1404 1409 1412 1416 1420 1423 1426 1428 1431 1433 1436 1439 1442 1445 1448 1452 1456 1460 1464 1467 1471 1475 1479 1483 1485 1488 1491 1494 1496 1498 1501 1502
1392 1390 1387 1385 1384 1384 1385 1386 1389 1391 1394 1398 1402 1406 1410 1414 1417 1420 1423 1426 1429 1431 1435 1438 1440 1443 1447 1450 1454 1457 1461 1465 1469 1474 1478 1481 1484 1487 1491 1494 1497 1499 1501